Regional Weather Roundup
Issued by NWS Wakefield, VA

Home | Current Version | Previous Version | Graphics & Text | Print | Product List | Glossary On
Versions: 1 2 3 4 5 6 7 8 9 10 11 12 13 14 15 16 17 18 19 20 21 22 23 24 25 26 27 28 29 30 31 32 33 34 35 36 37 38 39 40 41 42 43 44 45 46 47 48 49 50
000
ASUS41 KAKQ 271715
RWRAKQ

REGIONAL WEATHER ROUNDUP
NATIONAL WEATHER SERVICE WAKEFIELD VA
100 PM EDT WED MAY 27 2015

Note: "fair" indicates few or no clouds below 12,000 feet with no
significant weather and/or obstructions to visibility. * = Denotes
station may not report precipitation (e.g., rain,snow,etc.),
thunder or fog.

VAZ042-051-052>054-056-271800-
NORTHERN VIRGINIA

CITY           SKY/WX    TMP DP  RH WIND       PRES   REMARKS
WASH NATIONAL  MOSUNNY   87  68  52 S14G21    30.15F
DULLES         PTSUNNY   83  68  60 SW10      30.15F
FORT BELVOIR   SUNNY     86  66  52 S12G18    30.15S
QUANTICO       PTSUNNY   85  65  51 SW8       30.16F
FREDERICKSBRG* MOSUNNY   88  67  50 S10       30.16S
STAFFORD*      MOSUNNY   85  63  47 S7G17     30.20S
WARRENTON      MOSUNNY   87  72  60 S9        30.16S
CULPEPER*      PTSUNNY   84  68  58 W9        30.16F
MANASSAS*      PTSUNNY   84  68  58 SW8       30.16R
LEESBURG*      PTSUNNY   86  72  62 SW12G18   30.16S
WINCHESTER     LGT RAIN  75  59  57 NW13G18   30.18R
FRONT ROYAL*   FAIR      81  70  69 S7        30.16S
LURAY*         FAIR      82  70  65 SW9       30.18F
$$

VAZ048-049-060>072-079>083-271800-
CENTRAL AND SOUTH CENTRAL VIRGINIA

CITY           SKY/WX    TMP DP  RH WIND       PRES   REMARKS
RICHMOND       PTSUNNY   87  68  52 SW12G20   30.19F
CHESTERFIELD*  NOT AVBL
PETERSBURG*    MOSUNNY   87  73  63 S9G16     30.21S
HANOVER        MOSUNNY   86  67  52 SW12      30.20S
TAPPAHANNOCK*  MOSUNNY   87  62  42 S10       30.19F
QUINTON*       PTSUNNY   84  69  60 S5        30.19F
CHARLOTTSVILLE CLOUDY    83  66  56 S10       30.18S
GORDONSVILLE*  FAIR      82  68  62 SW7       30.17S
ORANGE*        PTSUNNY   84  68  58 S9        30.19S
LOUISA*        PTSUNNY   84  66  54 W8        30.17F
BUMPASS*       FAIR      84  66  55 SW9       30.18S
FARMVILLE*     MOSUNNY   85  65  50 S9        30.18F
CREWE*         FAIR      84  65  52 SW8       30.20F
FORT PICKETT*  FAIR      84  68  59 S13       30.22S
CHASE CITY*    PTSUNNY   86  69  56 S3        30.22S
CLARKSVILLE*   PTSUNNY   82  68  61 SW10G16   30.21F
SOUTH HILL*    PTSUNNY   83  67  60 SW9       30.28F
LAWRENCEVILLE* PTSUNNY   82  70  65 SW7       30.22F
EMPORIA*       MOSUNNY   82  68  61 SW9       30.24S
$$

VAZ088>098-271800-
SOUTHEAST VIRGINIA

CITY           SKY/WX    TMP DP  RH WIND       PRES   REMARKS
NORFOLK        MOSUNNY   89  66  46 SW14      30.22S
VIRGINIA BEACH PTSUNNY   86  68  54 SW15G23   30.22S
NORFOLK NAVAL  MOSUNNY   91  68  46 SW10      30.23F HX  95
WEST POINT*    MOSUNNY   88  64  44 SW10      30.21F
SALUDA*        PTSUNNY   84  70  63 SW13G18   30.20S
NEWPORT NEWS   SUNNY     89  69  51 SW15      30.21F
LANGLEY AFB    PTSUNNY   86  70  59 SW15      30.20F
FORT EUSTIS    MOSUNNY   84  69  60 S10       30.19F
WILLIAMSBURG*  SUNNY     90  70  51 SW12      30.22F HX  95
HR EXEC AP*    FAIR      86  70  58 SW6       30.24F
FRANKLIN*      MOSUNNY   85  69  58 SW10G16   30.23F
WAKEFIELD      MOSUNNY   85  69  58 SW8       30.21F
$$

VAZ020-022-025-037-045-271800-
WEST CENTRAL AND SOUTHWEST VIRGINIA

CITY           SKY/WX    TMP DP  RH WIND       PRES   REMARKS
STAUNTON*      CLOUDY    82  65  57 S6        30.22F
WAYNESBORO*    FAIR      78  66  66 SW6       30.22F
HOT SPRINGS VA PTSUNNY   70  60  69 W9        30.31F
LYNCHBURG      PTSUNNY   78  64  61 S9        30.23S
DANVILLE       PTSUNNY   82  64  54 SW9       30.22F
SOUTH BOSTON*  PTSUNNY   85  63  47 MISG      30.21F
MARTINSVILLE   PTSUNNY   75  64  70 SW6       30.27S
ROANOKE        PTSUNNY   83  61  47 S10       30.22F
BLACKSBURG     MOSUNNY   77  60  54 SW3       30.30S
DUBLIN*        MOSUNNY   79  58  48 SW7       30.27F
MARION*        MOSUNNY   76  59  57 W9        30.31F
HILLSVILLE*    MOSUNNY   73  63  70 SW6       30.30F
RICHLANDS*     FAIR      73  59  62 W5        30.29F
WISE*          MOSUNNY   73  54  49 SW8       30.30F
ABINGDON*      MOSUNNY   76  60  56 NW3       30.28S
$$

MDZ021>025-VAZ099-100-271800-
SOUTHERN MARYLAND AND THE DELMARVA PENINSULA

CITY           SKY/WX    TMP DP  RH WIND       PRES   REMARKS
PATUXENT RIVER MOSUNNY   84  69  60 S10G17    30.17F
BAY BRIDGE APT NOT AVBL
LEONARDTOWN    NOT AVBL
DOVER          MOSUNNY   84  73  69 S14G21    30.15S
GEORGETOWN     SUNNY     85  70  60 S15       30.19F
EASTON         MOSUNNY   84  72  65 SW12G20   30.21
CAMBRIDGE      NOT AVBL
SALISBURY      MOSUNNY   83  70  64 S12G17    30.19F
OCEAN CITY     MOSUNNY   71  64  78 S13G21    30.23F
WALLOPS ISLAND SUNNY     75  68  78 S20       30.23F
ACCOMACK*      MOSUNNY   81  72  74 S15G22    30.22S
$$

NCZ012>017-030>032-271800-
NORTH CENTRAL AND EASTERN NORTH CAROLINA

CITY           SKY/WX    TMP DP  RH WIND       PRES   REMARKS
ROANOKE RAPIDS PTSUNNY   82  68  61 S12       30.23F
RALEIGH        PTSUNNY   84  68  58 W10       30.25S
ELIZABETH CITY MOSUNNY   82  71  69 SW13G21   30.26S
AHOSKIE*       LGT RAIN  80  71  72 CALM      30.24S
EDENTON*         N/A     82  72  70 S12       30.25F
CURRITUCK*     PTSUNNY   83  67  59 S9        30.26S
KILL DEVIL HLS CLOUDY    78  65  65 S7G16     30.27S
MANTEO         CLOUDY    77  65  67 S15       30.29S
CAPE HATTERAS  CLOUDY    79  63  57 S12       30.31S
TARBORO*       FAIR      85  69  59 SW6       30.24F
GOLDSBORO      PTSUNNY   84  69  60 VRB5      30.22F
WASHINGTON     MOSUNNY   82  70  66 S7        30.26S
GREENVILLE     MOSUNNY   86  70  58 S8        30.25S
NEW BERN       MOSUNNY   83  68  60 S9        30.27F
WILMINGTON     PTSUNNY   81  68  64 SE10      30.26S
$$

VAZ048-271800-
ELSEWHERE

CITY           SKY/WX    TMP DP  RH WIND       PRES   REMARKS
HARRISBURG PA  PTSUNNY   86  68  54 S9        30.11F
BALTIMORE      PTSUNNY   84  67  56 S9G20     30.14F
ANNAPOLIS      MOSUNNY   80  70  71 S12G21    30.15F
ANDREWS AFB    MOSUNNY   85  69  59 S17       30.15F
PHILADELPHIA   PTSUNNY   85  69  58 SW14      30.15F
HENDERSON NC   MOSUNNY   84  65  53 SW8       30.24S
GREENSBORO     CLOUDY    79  65  62 W12       30.24F
ROCKY MOUNT    MOSUNNY   86  68  54 SW8G17    30.24F
$$

VAZ100-271800-
MARINE

STATION/POSITION TIME  TEMP    WIND        PRES    WAVE   SWELL
                       AIR SEA DIR/SP/G            HT/PER HT/PER
                 (UTC) (F)     (DEG/KT/KT) (MB)    (FT/S) (FT/S)
BRANDYWINE LGT   1600   69 68  180/ 15/ 15 1022.4F
CAPE MAY NJ      1600   71 70  170/ 13/ 18 1022.3F
LEWES DE         1600   81 62  170/  8/ 12 1022.3F
15NM E FENWICK I 1650   65 62              1023.2F   3/ 5
OCEAN-CITY-INLET 1600   64 68  200/ 13/ 16 1023.6S
WACHAPREAGUE VA  1600   76 74  190/ 13/ 17 1023.7R
THOMAS POINT MD  1700   73 68  160/ 17/ 17 1021.4F
GOOSES REEF MD   1700   72 69  170/ 16/ 19 1022.3F   1/ 2
COVE POINT MD    1606   70     180/ 16/ 18 1022.8F
SOLOMONS ISLAND  1600      72                N/A
BISHOPS HEAD MD  1600   73 73  150/ 12/ 16 1022.4F
PINEY POINT MD   1600          190/  6/  7   N/A
CAMBRIDGE MD     1600   80 71  150/  8/ 13 1021.8F
LEWISETTA VA     1600   81 72              1022.0F
RAPPAHANNOCK LGT 1600          170/ 12/ 12 1023.9F
STINGRAY PT      1700   79 73  210/ 12/ 17 1023.3F   1/ 3
YORK RVR RNG VA  1600   78     210/  9/ 11 1022.6F
YORKTOWN VA      1600   80 72  240/  9/ 13 1022.8F
JAMESTOWN VA     1700   81 76  210/  8/ 10 1022.0F
DOMINION TERM VA 1600   79     230/ 11/ 13 1023.6F
KIPTOPEKE VA     1600      76  180/ 10/ 11   N/A
CHES BAY BRIDGE  1600   80 71  190/ 11/ 14 1023.1F
CAPE HENRY VA    1600   82     180/ 10/ 13 1022.3F
CHESAPEAKE LGHT  1600   69     170/ 27/ 27 1024.0R
WILLOUBY STN VA  1600   78     230/ 10/ 11 1024.3S
CAPE HENRY BUOY  1628      62                N/A     3/ 5
1ST LANDING BUOY 1700      72              1023.0F
CAPE CHARLES BUO 1626      69                N/A     3/ 6   2/12
OFFSHORE WE BUOY 1611      65                N/A     3/ 5   2/12
64NM E OF VA BCH 1650   67 63  170/ 12/ 14 1025.3F   3/ 5   2/ 5
DUCK PIER NC     1600   77 56  180/ 14/ 16 1024.0F
44100 DUCK FRF   1624      65                N/A     2/ 5
44056 DUCK FRF   1611      64                N/A     2/ 5
OREGON INLET NC  1600   75 76  180/ 12/ 15 1025.8F
HATTERAS NC      1600   78 74  160/  9/ 11 1025.7F
DIAMOND SHLS NC  1650   75 77  170/ 12/ 12 1026.6R   3/ 7   2/ 7
CAPE LOOKOUT NC  1700   74     150/ 13/ 14 1025.5F
$$



USA.gov is the U.S. government's official web portal to all federal, state and local government web resources and services.